Weather Roundup
Issued by NWS Chicago, IL

Home | Current Version | Previous Version | Graphics & Text | Print | Product List | Glossary On
Versions: 1 2 3 4 5 6 7 8 9 10 11 12 13 14 15 16 17 18 19 20 21 22 23 24 25 26 27 28 29 30 31 32 33 34 35 36 37 38 39 40 41 42 43 44 45 46 47 48 49 50
000
NZUS59 KLOT 231407
HRRLOT

CHICAGO AREA WEATHER ROUNDUP
NATIONAL WEATHER SERVICE CHICAGO/ROMEOVILLE IL
900 AM CDT THU MAR 23 2017

NOTE: "FAIR" INDICATES FEW OR NO CLOUDS BELOW 12,000 FEET WITH NO
SIGNIFICANT WEATHER AND/OR OBSTRUCTIONS TO VISIBILITY.

* THESE STATIONS ARE NOT UNDER NWS QUALITY CONTROL. THEY ALSO MAY NOT
  REPORT WEATHER SUCH AS PRECIPITATION OR FOG.

ILZ005-006-012>014-019>023-231500-
NORTHEAST ILLINOIS

CITY           SKY/WX    TMP DP  RH WIND       PRES   REMARKS
OHARE          CLOUDY    35  19  52 SE14      30.40S WCI  26
MIDWAY         CLOUDY    34  19  54 SE12G20   30.41F WCI  25
AURORA         CLOUDY    35  22  58 SE12      30.39R WCI  27
LANSING*       CLOUDY    32  22  66 SE13      30.42F WCI  22
JOLIET*        CLOUDY    34  24  66 SE10      30.40S WCI  26
WAUKEGAN       CLOUDY    33  23  66 SE14      30.40S WCI  23
DUPAGE AIRPORT CLOUDY    34  21  59 SE12      30.38F WCI  25
WHEELING       CLOUDY    34  19  54 SE13      30.42S WCI  25
KANKAKEE*      CLOUDY    33  23  66 SE15      30.41S WCI  23
MORRIS*        CLOUDY    34  22  61 SE13      30.39R WCI  25
LEWIS AIRPORT* CLOUDY    33  24  72 SE13      30.39S WCI  23
NORTHERLY ISL    N/A     33  21  61 SE15        N/A  WCI  23
$$

WIZ051-052-058>065-066-070>072-231500-
SOUTHEAST WISCONSIN

CITY           SKY/WX    TMP DP  RH WIND       PRES   REMARKS
MILWAUKEE      CLOUDY    35  21  56 SE16      30.41R WCI  25
KENOSHA*       CLOUDY    34  22  61 SE12      30.41R WCI  25
RACINE*        CLOUDY    35  22  58 S16G22    30.42F WCI  25
WAUKESHA       CLOUDY    30  21  69 SE9       30.39F WCI  22
WEST BEND      CLOUDY    32  27  80 SE7       30.38F WCI  26
$$

INZ001>003-010>013-019-020-231500-
NORTHWEST INDIANA

CITY           SKY/WX    TMP DP  RH WIND       PRES   REMARKS
GARY*          CLOUDY    34  16  47 SE14      30.42F WCI  24
MICHIGAN CITY* NOT AVBL
RENSSELAER*    NOT AVBL
VALPARAISO     CLOUDY    32  17  54 E15       30.42F WCI  22
$$

LMZ740>746-231500-
SOUTHERN LAKE MICHIGAN

STATION/POSITION TIME  SKY/WX   TEMP WIND        PRES    VSBY
                                AIR  DIR/SP/G
                 (UTC)          (F)  (DEG/KT/KT) (MB)    (MI)
HARRISON CRIB    1340            33  140/ 18/ 20   N/A
BURNHAM HARBOR   1400            33  110/ 13/ 13   N/A
CALUMET HARBOR   1348            32  140/  8/ 13 1029.2F
BURNS HARBOR     1340            32  130/  9/ 14 1030.1F
MICHIGAN CITY    1340            30  120/ 12/ 16   N/A
$$

ABBREVIATIONS USED IN REMARKS
   TC - TEMPERATURE IN CELSIUS
  WCI - WIND CHILL INDEX
   HX - HEAT INDEX
  VSB - VISIBILITY
$$



USA.gov is the U.S. government's official web portal to all federal, state and local government web resources and services.